W6ACT Weather Reports


Display with metric or nautical units.
time (UTC)temp
F
wind
direction
speed
MPH
gust
MPH
rain 1hr
in
rain 24hr
in
rain mn
in
humidity
%
barometer
mb
20260902005351 68 233 8.0 21.0 0.00 0.00 0.00 54 1015.2
20260902004845 69 249 7.0 21.0 0.00 0.00 0.00 53 1015.3
20260902004338 69 234 7.0 16.0 0.00 0.00 0.00 52 1015.2
20260902003833 69 268 7.0 20.0 0.00 0.00 0.00 50 1015.2
20260902003326 69 203 6.0 20.0 0.00 0.00 0.00 50 1015.2
20260902002821 70 268 7.0 18.0 0.00 0.00 0.00 50 1015.2
20260902002314 70 214 6.0 17.0 0.00 0.00 0.00 49 1015.2
20260902001808 70 218 6.0 15.0 0.00 0.00 0.00 49 1015.2
20260902001302 71 189 6.0 15.0 0.00 0.00 0.00 48 1015.2
20260902001052 70 195 7.0 13.0 0.00 0.00 0.00 49 1015.2
20260902000250 71 220 7.0 21.0 0.00 0.00 0.00 48 1015.2
20260901235745 71 226 7.0 18.0 0.00 0.00 0.00 47 1015.2
20260901235239 71 271 7.0 16.0 0.00 0.00 0.00 48 1015.2
20260901234733 72 280 8.0 16.0 0.00 0.00 0.00 47 1015.2
20260901234227 72 208 7.0 16.0 0.00 0.00 0.00 48 1015.1
20260901233721 71 204 7.0 16.0 0.00 0.00 0.00 47 1015.2
20260901233215 71 235 9.0 17.0 0.00 0.00 0.00 47 1015.2
20260901233003 71 216 9.0 17.0 0.00 0.00 0.00 47 1015.2
20260901232203 71 275 8.0 16.0 0.00 0.00 0.00 46 1015.2
20260901231657 71 235 9.0 19.0 0.00 0.00 0.00 47 1015.3
20260901231150 72 206 8.0 19.0 0.00 0.00 0.00 47 1015.3
20260901230645 72 233 8.0 17.0 0.00 0.00 0.00 47 1015.4
20260901230449 72 218 8.0 17.0 0.00 0.00 0.00 46 1015.4
20260901225632 72 235 7.0 16.0 0.00 0.00 0.00 46 1015.4
20260901225127 72 271 7.0 16.0 0.00 0.00 0.00 47 1015.5
20260901224620 72 231 7.0 16.0 0.00 0.00 0.00 47 1015.4
20260901224114 71 208 6.0 17.0 0.00 0.00 0.00 48 1015.3
20260901223901 72 253 6.0 17.0 0.00 0.00 0.00 47 1015.4
20260901223116 71 211 7.0 15.0 0.00 0.00 0.00 48 1015.4
20260901222557 72 236 7.0 17.0 0.00 0.00 0.00 47 1015.4
20260901222051 72 258 7.0 17.0 0.00 0.00 0.00 47 1015.5
20260901221544 72 254 7.0 16.0 0.00 0.00 0.00 47 1015.5
20260901221038 71 199 7.0 15.0 0.00 0.00 0.00 49 1015.6
20260901220533 72 264 8.0 15.0 0.00 0.00 0.00 48 1015.7
20260901220026 72 231 8.0 15.0 0.00 0.00 0.00 48 1015.7
20260901215521 72 248 7.0 15.0 0.00 0.00 0.00 48 1015.8
20260901215014 72 233 7.0 17.0 0.00 0.00 0.00 47 1015.8
20260901214802 72 298 7.0 17.0 0.00 0.00 0.00 47 1015.8
20260901214003 72 235 7.0 14.0 0.00 0.00 0.00 46 1015.8
20260901213456 72 236 7.0 14.0 0.00 0.00 0.00 45 1015.9
20260901212951 72 241 7.0 15.0 0.00 0.00 0.00 45 1015.7
20260901212738 72 253 8.0 15.0 0.00 0.00 0.00 47 1015.8
20260901211939 72 253 8.0 17.0 0.00 0.00 0.00 46 1015.8
20260901211432 72 256 7.0 17.0 0.00 0.00 0.00 47 1015.7
20260901211016 72 186 7.0 16.0 0.00 0.00 0.00 46 1015.7
20260901210956 72 261 6.0 13.0 0.00 0.00 0.00 45 1015.8
20260901205915 71 211 6.0 16.0 0.00 0.00 0.00 46 1015.8
20260901205409 71 235 5.0 13.0 0.00 0.00 0.00 46 1015.7
20260901204951 71 291 6.0 15.0 0.00 0.00 0.00 47 1015.7
20260901204930 72 222 5.0 15.0 0.00 0.00 0.00 46 1015.7
20260901203850 71 224 7.0 16.0 0.00 0.00 0.00 48 1015.8
20260901203639 71 293 7.0 16.0 0.00 0.00 0.00 47 1015.9
20260901202845 71 256 7.0 14.0 0.00 0.00 0.00 48 1016.0
20260901202343 70 186 7.0 14.0 0.00 0.00 0.00 50 1016.1
20260901201843 70 210 6.0 13.0 0.00 0.00 0.00 50 1016.2
20260901201344 70 280 5.0 12.0 0.00 0.00 0.00 50 1016.4
20260901200843 69 269 6.0 14.0 0.00 0.00 0.00 50 1016.3
20260901200344 70 250 7.0 14.0 0.00 0.00 0.00 48 1016.4
20260901195844 71 234 6.0 13.0 0.00 0.00 0.00 49 1016.4
20260901195344 71 265 6.0 13.0 0.00 0.00 0.00 49 1016.4
20260901194844 70 208 6.0 13.0 0.00 0.00 0.00 50 1016.5
20260901194344 69 237 6.0 13.0 0.00 0.00 0.00 50 1016.5
20260901193844 69 214 6.0 11.0 0.00 0.00 0.00 51 1016.6
20260901193340 69 256 5.0 12.0 0.00 0.00 0.00 51 1016.5
20260901192841 69 276 5.0 12.0 0.00 0.00 0.00 52 1016.6
20260901192354 68 271 6.0 10.0 0.00 0.00 0.00 54 1016.6
20260901191841 69 258 6.0 13.0 0.00 0.00 0.00 54 1016.6
20260901191356 69 214 6.0 14.0 0.00 0.00 0.00 53 1016.7
20260901190841 69 225 6.0 14.0 0.00 0.00 0.00 54 1016.6
20260901190342 69 211 6.0 13.0 0.00 0.00 0.00 55 1016.6
20260901190133 69 256 5.0 13.0 0.00 0.00 0.00 55 1016.7
20260901185330 69 245 5.0 13.0 0.00 0.00 0.00 55 1016.7
20260901184824 69 307 4.0 12.0 0.00 0.00 0.00 56 1016.8
20260901184612 67 238 4.0 12.0 0.00 0.00 0.00 57 1016.7
20260901183812 67 248 5.0 12.0 0.00 0.00 0.00 56 1016.8
20260901183306 68 227 5.0 13.0 0.00 0.00 0.00 57 1016.8
20260901182800 67 270 5.0 13.0 0.00 0.00 0.00 56 1016.8
20260901182253 67 266 5.0 11.0 0.00 0.00 0.00 57 1016.8
20260901182041 67 257 6.0 13.0 0.00 0.00 0.00 58 1016.7
20260901181242 67 219 4.0 13.0 0.00 0.00 0.00 57 1016.8
20260901180736 67 272 3.0 8.0 0.00 0.00 0.00 58 1016.7
20260901180230 66 253 3.0 10.0 0.00 0.00 0.00 57 1016.7
20260901175724 65 249 3.0 10.0 0.00 0.00 0.00 59 1016.7
20260901175218 65 240 4.0 11.0 0.00 0.00 0.00 58 1016.7
20260901174711 66 262 5.0 11.0 0.00 0.00 0.00 57 1016.6
20260901174458 66 266 5.0 11.0 0.00 0.00 0.00 57 1016.5
20260901173700 67 221 6.0 14.0 0.00 0.00 0.00 56 1016.5
20260901173447 68 247 5.0 14.0 0.00 0.00 0.00 55 1016.5
20260901172648 67 237 2.0 9.0 0.00 0.00 0.00 58 1016.4
20260901172451 65 257 3.0 9.0 0.00 0.00 0.00 60 1016.4
20260901171635 65 262 4.0 11.0 0.00 0.00 0.00 59 1016.3
20260901171129 64 239 5.0 13.0 0.00 0.00 0.00 59 1016.2
20260901170623 65 252 4.0 13.0 0.00 0.00 0.00 60 1016.2
20260901170122 65 235 3.0 11.0 0.00 0.00 0.00 61 1016.2
20260901165611 65 245 3.0 9.0 0.00 0.00 0.00 63 1016.1
20260901165106 65 247 4.0 10.0 0.00 0.00 0.00 62 1016.2
20260901164559 64 214 5.0 10.0 0.00 0.00 0.00 63 1016.2
20260901164054 64 202 4.0 9.0 0.00 0.00 0.00 63 1016.2
20260901163547 64 259 5.0 11.0 0.00 0.00 0.00 64 1016.1
20260901163041 64 223 6.0 14.0 0.00 0.00 0.00 63 1016.2
20260901162536 64 218 6.0 14.0 0.00 0.00 0.00 63 1016.1
20260901162029 64 218 6.0 13.0 0.00 0.00 0.00 63 1016.1
20260901161524 64 183 5.0 13.0 0.00 0.00 0.00 64 1016.1
20260901161018 64 228 3.0 11.0 0.00 0.00 0.00 64 1016.1
20260901160513 64 227 2.0 6.0 0.00 0.00 0.00 66 1016.1
20260901160302 63 235 4.0 11.0 0.00 0.00 0.00 67 1016.0
20260901155500 63 230 6.0 15.0 0.00 0.00 0.00 67 1016.0
20260901155248 63 212 6.0 15.0 0.00 0.00 0.00 67 1015.8
20260901154447 63 199 6.0 11.0 0.00 0.00 0.00 67 1015.8
20260901153942 63 215 6.0 11.0 0.00 0.00 0.00 68 1015.7
20260901153436 63 214 6.0 14.0 0.00 0.00 0.00 68 1015.6
20260901152930 63 164 5.0 14.0 0.00 0.00 0.00 69 1015.6
20260901152424 62 201 4.0 9.0 0.00 0.00 0.00 69 1015.6
20260901151917 62 229 5.0 10.0 0.00 0.00 0.00 69 1015.6
20260901151411 62 197 5.0 11.0 0.00 0.00 0.00 69 1015.6
20260901150905 62 201 4.0 11.0 0.00 0.00 0.00 69 1015.5
20260901150359 62 245 3.0 9.0 0.00 0.00 0.00 69 1015.5
20260901145857 61 201 3.0 9.0 0.00 0.00 0.00 69 1015.4
20260901145356 61 206 3.0 7.0 0.00 0.00 0.00 69 1015.4
20260901144907 61 200 3.0 7.0 0.00 0.00 0.00 69 1015.4
20260901144355 61 194 2.0 6.0 0.00 0.00 0.00 69 1015.3
20260901143945 61 185 3.0 9.0 0.00 0.00 0.00 70 1015.2
20260901143926 61 195 3.0 9.0 0.00 0.00 0.00 70 1015.3
20260901142853 61 209 3.0 7.0 0.00 0.00 0.00 70 1015.1
20260901142353 61 208 2.0 7.0 0.00 0.00 0.00 70 1015.1
20260901141945 60 210 2.0 8.0 0.00 0.00 0.00 71 1014.9
20260901141927 61 209 2.0 6.0 0.00 0.00 0.00 70 1015.0
20260901140851 60 175 1.0 8.0 0.00 0.00 0.00 71 1014.9
20260901140350 60 211 0.0 3.0 0.00 0.00 0.00 71 1014.8
20260901135846 60 211 1.0 5.0 0.00 0.00 0.00 71 1014.7
20260901135347 60 212 2.0 5.0 0.00 0.00 0.00 71 1014.6
20260901134847 60 212 1.0 4.0 0.00 0.00 0.00 71 1014.6
20260901134345 60 212 1.0 4.0 0.00 0.00 0.00 71 1014.5
20260901133846 60 212 2.0 6.0 0.00 0.00 0.00 71 1014.5
20260901133342 60 212 2.0 6.0 0.00 0.00 0.00 71 1014.4
20260901132844 60 182 0.0 4.0 0.00 0.00 0.00 72 1014.4
20260901132337 60 183 1.0 3.0 0.00 0.00 0.00 72 1014.4
20260901131831 60 183 1.0 3.0 0.00 0.00 0.00 72 1014.4
20260901131326 60 183 1.0 4.0 0.00 0.00 0.00 72 1014.4
20260901131131 60 183 1.0 4.0 0.00 0.00 0.00 72 1014.3
20260901130327 60 183 1.0 4.0 0.00 0.00 0.00 72 1014.3
20260901130115 60 183 1.0 4.0 0.00 0.00 0.00 72 1014.4
20260901125340 60 183 0.0 3.0 0.00 0.00 0.00 73 1014.4
20260901124826 60 183 0.0 1.0 0.00 0.00 0.00 73 1014.4
20260901124326 60 183 1.0 4.0 0.00 0.00 0.00 73 1014.3
20260901123826 60 183 1.0 4.0 0.00 0.00 0.00 73 1014.2
20260901123327 60 182 0.0 4.0 0.00 0.00 0.00 73 1014.1
20260901122828 60 183 0.0 1.0 0.00 0.00 0.00 73 1014.1
20260901122327 60 183 0.0 4.0 0.00 0.00 0.00 72 1014.1
20260901121828 60 183 1.0 6.0 0.00 0.00 0.00 72 1014.1
20260901121326 60 183 2.0 6.0 0.00 0.00 0.00 72 1014.0
20260901121116 60 187 2.0 5.0 0.00 0.00 0.00 72 1014.0
20260901120617 60 187 1.0 5.0 0.00 0.00 0.00 72 1014.0
20260901120122 60 187 1.0 6.0 0.00 0.00 0.00 72 1013.9
20260901115324 60 189 1.0 6.0 0.00 0.00 0.00 72 1014.1
20260901114824 60 189 2.0 6.0 0.00 0.00 0.00 73 1014.1
20260901114325 60 189 1.0 6.0 0.00 0.00 0.00 73 1014.1
20260901113819 60 249 1.0 5.0 0.00 0.00 0.00 72 1014.1
20260901113312 60 249 2.0 5.0 0.00 0.00 0.00 72 1014.2
20260901112807 60 206 2.0 7.0 0.00 0.00 0.00 72 1014.1
20260901112300 60 195 2.0 7.0 0.00 0.00 0.00 72 1014.1
20260901111755 60 193 1.0 4.0 0.00 0.00 0.00 72 1014.2
20260901111249 60 193 1.0 4.0 0.00 0.00 0.00 71 1014.2
20260901110755 60 207 1.0 6.0 0.00 0.00 0.00 71 1014.3
20260901110236 60 208 3.0 7.0 0.00 0.00 0.00 71 1014.2
20260901105730 60 208 3.0 7.0 0.00 0.00 0.00 71 1014.1
20260901105225 60 247 1.0 7.0 0.00 0.00 0.00 71 1014.1
20260901104719 60 233 0.0 4.0 0.00 0.00 0.00 71 1014.1
20260901104213 60 231 0.0 4.0 0.00 0.00 0.00 71 1014.2
20260901103708 60 231 1.0 3.0 0.00 0.00 0.00 71 1014.1
20260901103200 60 231 1.0 4.0 0.00 0.00 0.00 71 1014.1
20260901102754 60 231 1.0 6.0 0.00 0.00 0.00 71 1014.0
20260901102730 60 231 0.0 4.0 0.00 0.00 0.00 71 1014.0
20260901101643 60 231 1.0 6.0 0.00 0.00 0.00 71 1014.0
20260901101136 60 209 0.0 3.0 0.00 0.00 0.00 71 1014.0
20260901100631 60 208 0.0 3.0 0.00 0.00 0.00 71 1013.9
20260901100125 60 208 0.0 0.0 0.00 0.00 0.00 71 1013.9
20260901095619 60 208 0.0 3.0 0.00 0.00 0.00 71 1013.9
20260901095112 60 208 0.0 3.0 0.00 0.00 0.00 71 1013.9
20260901094607 60 208 0.0 4.0 0.00 0.00 0.00 71 1013.9
20260901094350 60 209 1.0 4.0 0.00 0.00 0.00 71 1013.9
20260901093555 60 208 1.0 5.0 0.00 0.00 0.00 71 1013.9
20260901093048 60 208 2.0 6.0 0.00 0.00 0.00 71 1014.0
20260901092542 60 208 2.0 6.0 0.00 0.00 0.00 71 1014.0
20260901092037 60 209 2.0 6.0 0.00 0.00 0.00 71 1014.1
20260901091530 60 209 2.0 5.0 0.00 0.00 0.00 71 1014.0
20260901091025 60 208 2.0 7.0 0.00 0.00 0.00 71 1014.1
20260901090812 60 219 3.0 7.0 0.00 0.00 0.00 72 1014.0
20260901090012 60 254 3.0 8.0 0.00 0.00 0.00 72 1014.1
20260901085507 61 216 2.0 8.0 0.00 0.00 0.00 72 1014.1
20260901085016 60 246 1.0 6.0 0.00 0.00 0.00 71 1014.1
20260901084455 60 234 2.0 10.0 0.00 0.00 0.00 72 1014.1
20260901083949 61 200 4.0 10.0 0.00 0.00 0.00 72 1014.0
20260901083443 60 199 4.0 10.0 0.00 0.00 0.00 71 1014.1
20260901082937 60 214 2.0 10.0 0.00 0.00 0.00 72 1014.1
20260901082431 60 227 1.0 5.0 0.00 0.00 0.00 72 1014.1
20260901081925 60 227 0.0 5.0 0.00 0.00 0.00 72 1014.1
20260901081418 61 227 0.0 2.0 0.00 0.00 0.00 72 1014.1
20260901080913 61 227 1.0 4.0 0.00 0.00 0.00 72 1014.0
20260901080406 60 227 1.0 4.0 0.00 0.00 0.00 72 1014.1
20260901075901 61 228 1.0 5.0 0.00 0.00 0.00 72 1014.1
20260901075355 60 175 2.0 8.0 0.00 0.00 0.00 72 1014.0
20260901074848 60 226 2.0 8.0 0.00 0.00 0.00 72 1014.0
20260901074343 61 226 1.0 4.0 0.00 0.00 0.00 72 1014.0
20260901073837 60 227 2.0 6.0 0.00 0.00 0.00 72 1014.0
20260901073331 60 226 1.0 6.0 0.00 0.00 0.00 72 1013.9
20260901072837 60 210 1.0 7.0 0.00 0.00 0.00 72 1014.0
20260901072610 60 209 2.0 7.0 0.00 0.00 0.00 72 1014.0
20260901072105 60 224 3.0 7.0 0.00 0.00 0.00 72 1014.0
20260901071306 60 197 3.0 7.0 0.00 0.00 0.00 72 1013.9
20260901070800 60 250 3.0 7.0 0.00 0.00 0.00 72 1013.9
20260901070254 60 258 4.0 9.0 0.00 0.00 0.00 72 1014.0
20260901065747 60 216 4.0 10.0 0.00 0.00 0.00 73 1014.0
20260901065242 60 214 4.0 10.0 0.00 0.00 0.00 73 1013.9
20260901064736 60 222 4.0 9.0 0.00 0.00 0.00 73 1014.1
20260901064229 60 247 4.0 10.0 0.00 0.00 0.00 73 1014.0
20260901063723 60 202 4.0 10.0 0.00 0.00 0.00 73 1014.0
20260901063218 60 187 5.0 11.0 0.00 0.00 0.00 73 1013.9
20260901062712 60 203 5.0 12.0 0.00 0.00 0.00 73 1013.9
20260901062205 60 268 6.0 16.0 0.00 0.00 0.00 73 1013.9
20260901061659 60 233 5.0 16.0 0.00 0.00 0.00 73 1013.9
20260901061153 60 216 5.0 10.0 0.00 0.00 0.00 72 1014.0
20260901060648 60 207 6.0 14.0 0.00 0.00 0.00 72 1014.1
20260901060451 60 256 8.0 16.0 0.00 0.00 0.00 72 1014.1
20260901055636 60 218 7.0 16.0 0.00 0.00 0.00 73 1014.1
20260901055130 60 264 6.0 15.0 0.00 0.00 0.00 73 1014.1
20260901054623 60 199 6.0 15.0 0.00 0.00 0.00 73 1014.1
20260901054412 60 206 7.0 18.0 0.00 0.00 0.00 74 1014.1
20260901053612 60 234 6.0 18.0 0.00 0.00 0.00 74 1014.1
20260901053106 60 231 4.0 11.0 0.00 0.00 0.00 74 1014.1
20260901052600 60 224 4.0 12.0 0.00 0.00 0.00 74 1014.0
20260901052054 60 227 4.0 12.0 0.00 0.00 0.00 74 1014.0
20260901051550 60 177 3.0 10.0 0.00 0.00 0.00 74 1014.0
20260901051048 60 227 4.0 10.0 0.00 0.00 0.00 74 1014.0
20260901050549 60 244 3.0 10.0 0.00 0.00 0.00 74 1014.0
20260901050101 60 235 2.0 9.0 0.00 0.00 0.00 74 1013.9
20260901045548 60 200 3.0 11.0 0.00 0.00 0.00 74 1014.0
20260901045048 60 270 3.0 11.0 0.00 0.00 0.00 74 1014.0
20260901044548 60 241 3.0 10.0 0.00 0.00 0.00 74 1014.0
20260901044047 60 262 3.0 10.0 0.00 0.00 0.00 74 1014.0
20260901043546 60 280 2.0 10.0 0.00 0.00 0.00 74 1014.0
20260901043047 60 241 1.0 7.0 0.00 0.00 0.00 74 1014.0
20260901042548 60 220 0.0 0.0 0.00 0.00 0.00 74 1014.0
20260901042048 60 220 0.0 2.0 0.00 0.00 0.00 74 1013.9
20260901041548 60 220 1.0 4.0 0.00 0.00 0.00 74 1013.9
20260901041059 60 220 3.0 12.0 0.00 0.00 0.00 75 1013.9
20260901040545 60 220 2.0 12.0 0.00 0.00 0.00 74 1013.8
20260901040044 60 264 3.0 12.0 0.00 0.00 0.00 74 1013.7
20260901035545 60 300 4.0 12.0 0.00 0.00 0.00 74 1013.7
20260901035046 60 245 3.0 8.0 0.00 0.00 0.00 74 1013.6
20260901034539 60 220 3.0 12.0 0.00 0.00 0.00 74 1013.6
20260901034034 60 261 3.0 8.0 0.00 0.00 0.00 74 1013.6
20260901033527 60 248 4.0 10.0 0.00 0.00 0.00 74 1013.5
20260901033021 60 210 4.0 10.0 0.00 0.00 0.00 74 1013.4
20260901032811 60 245 4.0 10.0 0.00 0.00 0.00 74 1013.4
20260901032009 60 221 3.0 9.0 0.00 0.00 0.00 74 1013.3
20260901031758 60 228 3.0 9.0 0.00 0.00 0.00 74 1013.3
20260901030958 60 253 3.0 11.0 0.00 0.00 0.00 74 1013.2
20260901030454 60 248 4.0 11.0 0.00 0.00 0.00 74 1013.2
20260901025954 60 267 5.0 13.0 0.00 0.00 0.00 74 1013.2
20260901025453 61 246 4.0 13.0 0.00 0.00 0.00 74 1013.1
20260901024955 61 241 4.0 13.0 0.00 0.00 0.00 74 1013.1
20260901024454 61 297 4.0 13.0 0.00 0.00 0.00 74 1013.1
20260901024044 61 249 3.0 10.0 0.00 0.00 0.00 73 1013.0
20260901024025 61 204 4.0 11.0 0.00 0.00 0.00 74 1013.0
20260901022953 61 253 3.0 11.0 0.00 0.00 0.00 73 1013.0
20260901022750 61 262 4.0 11.0 0.00 0.00 0.00 73 1013.0
20260901022244 62 303 4.0 9.0 0.00 0.00 0.00 72 1013.0
20260901021452 62 210 4.0 10.0 0.00 0.00 0.00 72 1013.0
20260901021249 62 274 3.0 10.0 0.00 0.00 0.00 72 1013.0
20260901020452 62 316 4.0 11.0 0.00 0.00 0.00 72 1012.9
20260901015953 62 255 5.0 12.0 0.00 0.00 0.00 72 1013.0
20260901015453 62 222 4.0 13.0 0.00 0.00 0.00 71 1013.0
20260901014949 62 275 4.0 13.0 0.00 0.00 0.00 70 1013.0
20260901014449 63 255 4.0 11.0 0.00 0.00 0.00 70 1013.2
20260901013949 63 253 5.0 11.0 0.00 0.00 0.00 70 1013.1
20260901013449 63 264 5.0 12.0 0.00 0.00 0.00 69 1013.2
20260901013336 64 228 5.0 9.0 0.00 0.00 0.00 69 1013.2
20260901013022 64 234 5.0 12.0 0.00 0.00 0.00 69 1013.1
20260901012000 64 213 5.0 14.0 0.00 0.00 0.00 68 1013.1
20260901011450 64 281 4.0 14.0 0.00 0.00 0.00 67 1013.1
20260901011248 65 231 5.0 18.0 0.00 0.00 0.00 67 1013.1
20260901010443 65 276 5.0 18.0 0.00 0.00 0.00 67 1013.1
20260901005946 65 279 5.0 12.0 0.00 0.00 0.00 67 1013.1